Collingwood, Ontario

10:09 AM EDT on September 20, 2017 (GMT -0400)
Collingwood

Weather History for CWCO - December, 2012

Change the Weather History Date:

Tuesday, December 4, 2012

  Actual Average (CYBN) Record (CYBN)
Temperature  
Mean Temperature 52 °F -  
Max Temperature 60 °F 35 °F 59 °F (2012)
Min Temperature 42 °F 20 °F 5 °F (2003)
Degree Days  
Heating Degree Days 14    
Growing Degree Days 2 (Base 50)    
Moisture  
Dew Point 46 °F    
Average Humidity 79    
Maximum Humidity 92    
Minimum Humidity 65    
Precipitation  
Precipitation 0.12 in - - ()
Sea Level Pressure  
Sea Level Pressure 29.86 in    
Wind  
Wind Speed 7 mph ()    
Max Wind Speed 14 mph    
Max Gust Speed 22 mph    
Averages and records for this station are not official NWS values.
T = Trace of Precipitation, MM = Missing Value Source: Averaged Metar Reports

Daily Weather History Graph

Daily Weather History Graph

Search for Another Location

Airport or City:

Trip Planner

Search our weather history database for the weather conditions in past years. The results will help you decide how hot, cold, wet, or windy it might be!

Date:

Astronomy

Dec. 04, 2012 Rise Set
Actual Time 7:40 AM EST 4:41 PM EST
Civil Twilight 7:08 AM EST 5:14 PM EST
Nautical Twilight 6:31 AM EST 5:50 PM EST
Astronomical Twilight 5:56 AM EST 6:26 PM EST
Moon 10:36 PM EST (12/4) 11:26 AM EST (12/4)
Length of Visible Light 10h 06m
Length of Day
9h 00m
Waning Gibbous, 69% of the Moon is Illuminated
Dec 4
Waning Gibbous
Dec 6
Last Quarter
Dec 13
New
Dec 20
First Quarter
Dec 28
Full

Hourly Weather History & Observations

Time (EST) Temp. Windchill Dew Point Humidity Pressure Visibility Wind Dir Wind Speed Gust Speed Precip Events Conditions
12:00 AM 45.7 °F 40.6 °F 43.5 °F 92% 29.91 in - SE 10.4 mph 17.3 mph N/A   Unknown
1:00 AM 49 °F - 47 °F 90% 29.88 in - SE 9.2 mph - -  
1:00 AM 49.1 °F - 46.9 °F 92% 29.88 in - SE 9.2 mph - N/A   Unknown
2:00 AM 53.2 °F - 50.5 °F 91% 29.86 in - SSE 6.9 mph - N/A   Unknown
3:00 AM 60.4 °F - 54.0 °F 79% 29.85 in - SSW 8.1 mph - N/A   Unknown
4:00 AM 61.7 °F - 54.0 °F 76% 29.83 in - SSW 11.5 mph 20.7 mph N/A   Unknown
5:00 AM 60.8 °F - 54.0 °F 78% 29.81 in - SSW 9.2 mph 18.4 mph N/A   Unknown
6:00 AM 60.6 °F - 53.8 °F 78% 29.81 in - SSW 11.5 mph 20.7 mph N/A   Unknown
7:00 AM 60 °F - 53 °F 72% 29.81 in - SSW 8.1 mph - -  
7:00 AM 60.4 °F - 53.4 °F 78% 29.81 in - SSW 8.1 mph - N/A   Unknown
8:00 AM 60.4 °F - 53.4 °F 78% 29.82 in - SSW 8.1 mph - N/A   Unknown
9:00 AM 59.5 °F - 54.1 °F 82% 29.83 in - SSW 8.1 mph 17.3 mph N/A   Unknown
10:00 AM 50.7 °F - 47.1 °F 87% 29.86 in - NW 10.4 mph 18.4 mph N/A   Unknown
11:00 AM 51.4 °F - 48.0 °F 88% 29.89 in - NW 6.9 mph - 0.08 in   Unknown
12:00 PM 50.2 °F - 45.5 °F 84% 29.86 in - NW 9.2 mph - 0.02 in   Unknown
1:00 PM 51 °F - 44 °F 70% 29.86 in - West 5.8 mph - -  
1:00 PM 51.3 °F - 44.1 °F 76% 29.86 in - West 5.8 mph - N/A   Unknown
2:00 PM 51.3 °F - 44.8 °F 78% 29.83 in - West 4.6 mph - N/A   Unknown
3:00 PM 51.3 °F - 44.1 °F 76% 29.85 in - SW 4.6 mph - N/A   Unknown
4:00 PM 48.9 °F - 42.8 °F 79% 29.85 in - NW 4.6 mph - N/A   Unknown
5:00 PM 49.3 °F - 41.7 °F 75% 29.88 in - SW 4.6 mph - N/A   Unknown
6:00 PM 48.0 °F - 40.1 °F 74% 29.88 in - SW 2.3 mph - N/A   Unknown
7:00 PM 46 °F - 38 °F 65% 29.89 in - WNW 3.5 mph - -  
7:00 PM 46.2 °F 45.0 °F 38.1 °F 73% 29.89 in - WNW 3.5 mph - N/A   Unknown
8:00 PM 46.0 °F 43.1 °F 38.1 °F 74% 29.90 in - SW 5.8 mph - N/A   Unknown
9:00 PM 45.5 °F 43.2 °F 37.4 °F 73% 29.91 in - West 4.6 mph - N/A   Unknown
10:00 PM 43.5 °F 36.7 °F 37.4 °F 79% 29.94 in - NW 13.8 mph 21.9 mph N/A   Unknown
11:00 PM 42.3 °F 35.5 °F 33.8 °F 72% 29.96 in - NW 12.7 mph 20.7 mph N/A   Unknown